Location: *
(38.3914°N, 75.0697°W)
Time: 07:08:48
(UTC+00:00)

N. Korean satellite - Visible Passes

Search period start: 04 March 2021 00:00
Search period end: 14 March 2021 00:00
Orbit: 451 x 502 km, 97.2° (Epoch: 03 March)

Date Brightness Start Highest point End Pass type
(mag) Time Alt. Az. Time Alt. Az. Time Alt. Az.
04 Mar 9.1 09:44:11 10° NE 09:47:05 23° E 09:49:59 10° SSE visible
05 Mar 10.1 09:19:24 10° E 09:20:10 11° E 09:20:56 10° ESE visible
05 Mar 7.0 10:50:16 10° N 10:53:37 40° WNW 10:57:00 10° SW visible
06 Mar 6.6 10:23:20 10° NNE 10:26:55 84° ESE 10:30:31 10° S visible
07 Mar 8.3 09:56:49 10° NNE 10:00:07 34° E 10:03:26 10° SSE visible
08 Mar 9.7 09:30:58 10° NE 09:33:13 16° E 09:35:29 10° SE visible
09 Mar 6.5 10:36:17 10° N 10:39:50 63° WNW 10:43:26 10° SSW visible
10 Mar 7.4 10:09:32 10° NNE 10:13:04 52° E 10:16:37 10° S visible
11 Mar 9.1 09:43:15 10° NE 09:46:11 23° E 09:49:08 10° SSE visible
12 Mar 10.1 09:18:22 10° ENE 09:19:13 11° E 09:20:03 10° ESE visible
13 Mar 6.7 10:22:17 10° NNE 10:25:55 82° ESE 10:29:34 10° S visible
